K9ZOG Weather Reports


time (UTC)temp
C
wind
direction
speed
KPH
gust
KPH
rain 1hr
cm
rain 24hr
cm
rain mn
cm
humidity
%
barometer
mb
20260906121125 13 360 0.0 0.0 0.00 0.00 0.00 96 1020.6
20260906120626 13 360 0.0 0.0 0.00 0.00 0.00 96 1020.6
20260906120125 13 360 0.0 0.0 0.00 0.00 0.00 96 1020.5
20260906115626 13 360 0.0 0.0 0.00 0.00 0.00 96 1020.5
20260906115125 13 360 0.0 0.0 0.00 0.00 0.00 96 1020.5
20260906114625 13 360 0.0 0.0 0.00 0.00 0.00 96 1020.3
20260906114125 13 360 0.0 0.0 0.00 0.00 0.00 96 1020.2
20260906113625 13 360 0.0 0.0 0.00 0.00 0.00 96 1020.1
20260906113125 13 360 0.0 0.0 0.00 0.00 0.00 96 1020.1
20260906112625 13 360 0.0 0.0 0.00 0.00 0.00 96 1020.1
20260906112125 13 360 0.0 0.0 0.00 0.00 0.00 95 1020.1
20260906111625 13 360 0.0 0.0 0.00 0.00 0.00 95 1020.1
20260906111126 13 360 0.0 0.0 0.00 0.00 0.00 95 1020.1
20260906110626 13 360 0.0 0.0 0.00 0.00 0.00 95 1020.2
20260906110125 13 5 0.0 0.0 0.00 0.00 0.00 95 1020.3
20260906105625 13 360 0.0 0.0 0.00 0.00 0.00 95 1020.2
20260906105126 13 326 0.0 0.0 0.00 0.00 0.00 95 1020.1
20260906104625 13 347 1.6 3.2 0.00 0.00 0.00 95 1020.0
20260906104125 13 360 0.0 0.0 0.00 0.00 0.00 95 1019.9
20260906103625 13 360 0.0 0.0 0.00 0.00 0.00 95 1019.9
20260906103125 13 360 0.0 0.0 0.00 0.00 0.00 95 1020.0
20260906102626 13 349 0.0 1.6 0.00 0.00 0.00 94 1020.0
20260906102125 13 360 0.0 0.0 0.00 0.00 0.00 94 1020.1
20260906101625 13 360 0.0 0.0 0.00 0.00 0.00 94 1020.1
20260906101126 13 360 0.0 0.0 0.00 0.00 0.00 94 1020.1
20260906100625 13 360 0.0 0.0 0.00 0.00 0.00 94 1020.2
20260906100126 13 346 1.6 1.6 0.00 0.00 0.00 94 1020.2
20260906095626 13 352 1.6 1.6 0.00 0.00 0.00 94 1020.1
20260906095125 13 360 0.0 0.0 0.00 0.00 0.00 93 1019.8
20260906094625 13 360 0.0 0.0 0.00 0.00 0.00 93 1019.7
20260906094125 13 360 0.0 0.0 0.00 0.00 0.00 93 1019.8
20260906093625 13 360 0.0 0.0 0.00 0.00 0.00 93 1019.8
20260906093125 13 360 0.0 0.0 0.00 0.00 0.00 93 1019.7
20260906092625 13 360 0.0 0.0 0.00 0.00 0.00 92 1019.6
20260906092125 14 360 0.0 0.0 0.00 0.00 0.00 92 1019.6
20260906091626 14 360 0.0 0.0 0.00 0.00 0.00 92 1019.5
20260906091126 14 360 0.0 0.0 0.00 0.00 0.00 92 1019.5
20260906090625 14 360 0.0 0.0 0.00 0.00 0.00 92 1019.6
20260906090125 14 360 0.0 0.0 0.00 0.00 0.00 92 1019.5
20260906085625 14 360 0.0 0.0 0.00 0.00 0.00 91 1019.4
20260906085125 14 360 0.0 0.0 0.00 0.00 0.00 91 1019.3
20260906084625 14 360 0.0 0.0 0.00 0.00 0.00 91 1019.2
20260906084125 14 360 0.0 0.0 0.00 0.00 0.00 90 1019.0
20260906083625 15 360 0.0 0.0 0.00 0.00 0.00 90 1018.8
20260906083125 15 360 0.0 0.0 0.00 0.00 0.00 90 1018.7
20260906082626 15 360 0.0 0.0 0.00 0.00 0.00 90 1018.6
20260906082125 15 360 0.0 0.0 0.00 0.00 0.00 89 1018.6
20260906081625 15 360 0.0 0.0 0.00 0.00 0.00 89 1018.5
20260906081128 15 360 0.0 0.0 0.00 0.00 0.00 89 1018.5
20260906080625 15 360 0.0 0.0 0.00 0.00 0.00 89 1018.4
20260906080125 15 360 0.0 0.0 0.00 0.00 0.00 89 1018.4
20260906075626 15 360 0.0 0.0 0.00 0.00 0.00 89 1018.3
20260906075126 15 360 0.0 0.0 0.00 0.00 0.00 89 1018.3
20260906074626 15 360 0.0 0.0 0.00 0.00 0.00 89 1018.3
20260906074126 15 19 1.6 3.2 0.00 0.00 0.00 89 1018.2
20260906073626 15 20 0.0 3.2 0.00 0.00 0.00 89 1018.2
20260906073125 15 18 0.0 0.0 0.00 0.00 0.00 89 1018.1
20260906072625 15 360 0.0 0.0 0.00 0.00 0.00 88 1018.0
20260906072125 16 360 0.0 0.0 0.00 0.00 0.00 87 1018.0
20260906071625 16 360 0.0 0.0 0.00 0.00 0.00 87 1018.0
20260906071126 16 360 0.0 0.0 0.00 0.00 0.00 87 1017.9
20260906070626 16 360 0.0 0.0 0.00 0.00 0.00 86 1018.0
20260906070126 16 360 0.0 0.0 0.00 0.00 0.00 86 1018.0
20260906065625 16 360 0.0 0.0 0.00 0.00 0.00 86 1018.0
20260906065125 16 351 0.0 0.0 0.00 0.00 0.00 86 1018.0
20260906064625 16 29 0.0 0.0 0.00 0.00 0.00 85 1018.0
20260906064125 16 33 1.6 1.6 0.00 0.00 0.00 85 1017.9
20260906063625 16 360 0.0 0.0 0.00 0.00 0.00 85 1017.8
20260906063126 17 360 0.0 0.0 0.00 0.00 0.00 84 1017.8
20260906062625 17 345 0.0 0.0 0.00 0.00 0.00 84 1017.7
20260906062127 17 13 1.6 3.2 0.00 0.00 0.00 84 1017.7
20260906061625 17 360 0.0 0.0 0.00 0.00 0.00 84 1017.7
20260906061125 17 360 0.0 0.0 0.00 0.00 0.00 84 1017.7
20260906060625 17 6 1.6 3.2 0.00 0.00 0.00 84 1017.7
20260906060125 17 10 1.6 3.2 0.00 0.00 0.00 84 1017.6
20260906055625 17 360 1.6 3.2 0.00 0.00 0.00 84 1017.6
20260906055125 17 335 3.2 3.2 0.00 0.00 0.00 84 1017.6
20260906054625 17 360 0.0 0.0 0.00 0.00 0.00 84 1017.5
20260906054125 17 23 0.0 0.0 0.00 0.00 0.00 84 1017.5
20260906053625 17 9 3.2 3.2 0.00 0.00 0.00 83 1017.5
20260906053125 17 7 1.6 1.6 0.00 0.00 0.00 84 1017.5
20260906052625 17 9 1.6 3.2 0.00 0.00 0.00 84 1017.5
20260906052125 17 360 0.0 0.0 0.00 0.00 0.00 84 1017.5
20260906051627 18 289 0.0 0.0 0.00 0.00 0.00 84 1017.6
20260906051125 18 267 1.6 3.2 0.00 0.00 0.00 85 1017.6
20260906050625 18 351 1.6 1.6 0.00 0.00 0.00 85 1017.5
20260906050125 18 20 0.0 1.6 0.00 0.00 0.00 85 1017.5
20260906045625 18 360 0.0 0.0 0.00 0.00 0.00 85 1017.5
20260906045126 18 343 1.6 3.2 0.00 0.00 0.00 85 1017.5
20260906044626 18 360 0.0 1.6 0.00 0.00 0.00 85 1017.5
20260906044126 18 360 0.0 0.0 0.00 0.00 0.00 85 1017.5
20260906043625 18 259 0.0 0.0 0.00 0.00 0.00 85 1017.5
20260906042745 18 101 0.0 0.0 0.00 0.00 0.00 85 1017.2
20260906042706 18 89 1.6 3.2 0.00 0.00 0.00 85 1017.2
20260906042125 19 1 1.6 1.6 0.00 0.00 0.00 86 1017.2
20260906041626 19 12 1.6 3.2 0.00 0.00 0.00 86 1017.0
20260906041125 19 92 1.6 3.2 0.00 0.00 0.00 86 1017.0
20260906040626 19 356 1.6 3.2 0.00 0.00 0.00 86 1017.0
20260906040127 19 355 0.0 1.6 0.00 0.00 0.00 85 1017.0
20260906035625 19 360 0.0 0.0 0.00 0.00 0.00 85 1016.9
20260906035125 19 360 0.0 0.0 0.00 0.00 0.00 85 1016.9
20260906034625 20 135 1.6 3.2 0.00 0.00 0.00 85 1016.9
20260906034125 20 347 0.0 1.6 0.00 0.00 0.00 85 1016.8
20260906033625 20 12 0.0 3.2 0.00 0.00 0.00 84 1016.7
20260906033126 20 360 0.0 0.0 0.00 0.00 0.00 84 1016.6
20260906032626 20 17 0.0 1.6 0.00 0.00 0.00 84 1016.6
20260906032126 20 3 1.6 3.2 0.00 0.00 0.00 84 1016.5
20260906031627 20 18 3.2 4.8 0.00 0.00 0.00 84 1016.6
20260906031126 20 360 0.0 0.0 0.00 0.00 0.00 84 1016.5
20260906030625 20 94 0.0 0.0 0.00 0.00 0.00 84 1016.6
20260906030125 20 360 0.0 0.0 0.00 0.00 0.00 84 1016.5
20260906025626 21 360 0.0 0.0 0.00 0.00 0.00 84 1016.5
20260906025125 21 360 0.0 0.0 0.00 0.00 0.00 84 1016.5
20260906024628 21 86 0.0 0.0 0.00 0.00 0.00 84 1016.4
20260906024126 21 56 1.6 3.2 0.00 0.00 0.00 84 1016.4
20260906023625 21 65 1.6 1.6 0.00 0.00 0.00 85 1016.4
20260906023125 21 21 1.6 3.2 0.00 0.00 0.00 85 1016.4
20260906022625 21 3 1.6 1.6 0.00 0.00 0.00 86 1016.3
20260906022126 21 139 1.6 1.6 0.00 0.00 0.00 88 1016.3
20260906021625 21 199 0.0 1.6 0.00 0.00 0.00 88 1016.2
20260906021125 21 360 0.0 0.0 0.00 0.00 0.00 91 1016.6
20260906020625 21 360 0.0 0.0 0.00 0.00 0.00 92 1016.9
20260906020126 22 360 0.0 0.0 0.00 0.00 0.00 92 1017.0
20260906015625 22 4 0.0 1.6 0.00 0.00 0.00 92 1017.0
20260906015127 22 360 0.0 0.0 0.00 0.00 0.00 92 1017.0
20260906014625 22 360 0.0 0.0 0.00 0.00 0.00 92 1017.0
20260906014125 22 360 0.0 0.0 0.00 0.00 0.00 92 1017.2
20260906013625 22 360 0.0 0.0 0.00 0.00 0.00 91 1017.0
20260906013125 22 347 0.0 0.0 0.00 0.00 0.00 91 1017.0
20260906012625 22 360 0.0 0.0 0.00 0.00 0.00 91 1017.0
20260906012125 22 360 0.0 0.0 0.00 0.00 0.00 91 1016.9
20260906011625 22 360 0.0 0.0 0.00 0.00 0.00 90 1016.7
20260906011125 22 360 0.0 0.0 0.00 0.00 0.00 90 1016.7
20260906010626 22 360 0.0 0.0 0.00 0.00 0.00 90 1016.5
20260906010126 22 360 0.0 0.0 0.00 0.00 0.00 90 1016.5
20260906005627 22 360 0.0 0.0 0.00 0.00 0.00 90 1016.4
20260906005126 22 318 1.6 1.6 0.00 0.00 0.00 89 1016.4
20260906004626 22 259 0.0 0.0 0.00 0.00 0.00 88 1016.3
20260906004125 22 360 0.0 0.0 0.00 0.00 0.00 88 1016.1
20260906003625 22 324 1.6 3.2 0.00 0.00 0.00 87 1016.2
20260906003125 22 341 1.6 3.2 0.00 0.00 0.00 86 1016.0
20260906002625 23 256 0.0 0.0 0.00 0.00 0.00 83 1015.6
20260906002125 23 360 0.0 0.0 0.00 0.00 0.00 82 1015.4
20260906001627 23 360 0.0 0.0 0.00 0.00 0.00 81 1015.3
20260906001125 23 360 0.0 0.0 0.00 0.00 0.00 81 1015.3
20260906000625 23 360 0.0 0.0 0.00 0.00 0.00 80 1015.3
20260906000125 23 360 0.0 0.0 0.00 0.00 0.00 80 1015.4
20260905235625 24 360 0.0 0.0 0.00 0.00 0.00 79 1015.3
20260905235127 24 360 0.0 0.0 0.00 0.00 0.00 78 1015.3
20260905234625 24 360 0.0 0.0 0.00 0.00 0.00 77 1015.3
20260905234125 25 360 0.0 0.0 0.00 0.00 0.00 76 1015.2
20260905233625 25 40 0.0 1.6 0.00 0.00 0.00 75 1015.2
20260905233125 25 140 0.0 0.0 0.00 0.00 0.00 74 1015.1
20260905232625 26 360 0.0 0.0 0.00 0.00 0.00 72 1015.1
20260905232125 26 349 1.6 3.2 0.00 0.00 0.00 70 1015.1
20260905231625 27 14 0.0 0.0 0.00 0.00 0.00 69 1015.1
20260905231125 27 25 1.6 3.2 0.00 0.00 0.00 68 1015.1
20260905230625 27 356 0.0 0.0 0.00 0.00 0.00 69 1015.1
20260905230125 26 334 0.0 0.0 0.00 0.00 0.00 70 1015.0
20260905225625 26 360 0.0 0.0 0.00 0.00 0.00 72 1015.0
20260905225125 26 360 3.2 3.2 0.00 0.00 0.00 72 1015.0
20260905224626 25 359 1.6 1.6 0.00 0.00 0.00 73 1015.0
20260905224125 25 17 1.6 3.2 0.00 0.00 0.00 73 1015.0
20260905223626 25 26 4.8 4.8 0.00 0.00 0.00 73 1015.0
20260905223125 25 17 3.2 4.8 0.00 0.00 0.00 75 1015.0
20260905222625 24 350 0.0 1.6 0.00 0.00 0.00 76 1015.0
20260905222131 25 19 1.6 3.2 0.00 0.00 0.00 76 1015.0
20260905221626 25 23 0.0 0.0 0.00 0.00 0.00 78 1014.9
20260905221125 25 34 4.8 6.4 0.00 0.00 0.00 78 1014.8
20260905220626 25 360 0.0 0.0 0.00 0.00 0.00 82 1014.8
20260905220125 24 356 3.2 4.8 0.00 0.00 0.00 81 1014.7
20260905215626 24 345 1.6 3.2 0.00 0.00 0.00 83 1014.7
20260905215125 24 338 1.6 3.2 0.00 0.00 0.00 84 1014.8
20260905214625 23 360 0.0 0.0 0.00 0.00 0.00 85 1014.9
20260905214125 23 202 0.0 1.6 0.00 0.00 0.00 86 1015.0
20260905213625 23 28 4.8 6.4 0.00 0.00 0.00 85 1014.8
20260905213125 23 32 3.2 4.8 0.00 0.00 0.00 85 1014.7
20260905212625 23 109 1.6 1.6 0.00 0.00 0.00 87 1014.9
20260905212125 23 27 3.2 3.2 0.00 0.00 0.00 87 1014.8
20260905211626 23 40 3.2 6.4 0.00 0.00 0.00 89 1014.7
20260905211125 22 27 3.2 3.2 0.00 0.00 0.00 90 1014.8
20260905210625 22 29 1.6 3.2 0.00 0.00 0.00 91 1014.5
20260905210127 22 347 0.0 0.0 0.00 0.00 0.00 93 1015.0
20260905205625 22 27 1.6 3.2 0.00 0.00 0.00 94 1015.1
20260905205125 22 257 0.0 1.6 0.00 0.00 0.00 95 1015.5
20260905204625 22 22 3.2 3.2 0.00 0.00 0.00 95 1015.8
20260905204125 21 5 1.6 1.6 0.00 0.00 0.00 96 1016.1
20260905203625 21 353 1.6 3.2 0.00 0.00 0.00 96 1016.1
20260905203126 21 141 0.0 1.6 0.00 0.00 0.00 96 1016.4
20260905202626 21 33 1.6 3.2 0.00 0.00 0.00 96 1016.4
20260905202125 21 1 1.6 3.2 0.00 0.00 0.00 96 1016.5
20260905201626 21 219 1.6 3.2 0.00 0.00 0.00 96 1016.6
20260905201126 21 334 0.0 1.6 0.00 0.00 0.00 96 1016.6
20260905200626 21 19 0.0 3.2 0.00 0.00 0.00 95 1016.7
20260905200125 21 25 1.6 3.2 0.00 0.00 0.00 95 1016.7
20260905195625 21 6 1.6 3.2 0.00 0.00 0.00 95 1016.6
20260905195125 21 7 1.6 3.2 0.00 0.00 0.00 95 1016.6
20260905194626 21 10 1.6 3.2 0.00 0.00 0.00 94 1016.5
20260905194127 21 22 4.8 6.4 0.00 0.00 0.00 94 1016.4
20260905193626 21 8 3.2 3.2 0.00 0.00 0.00 94 1016.5
20260905193125 21 14 1.6 3.2 0.00 0.00 0.00 94 1016.6
20260905192627 21 17 6.4 6.4 0.00 0.00 0.00 94 1016.6
20260905192125 21 16 3.2 6.4 0.00 0.00 0.00 94 1016.6
20260905191626 21 24 3.2 3.2 0.00 0.00 0.00 94 1016.9
20260905191125 21 9 3.2 3.2 0.00 0.00 0.00 94 1016.8
20260905190628 21 9 3.2 3.2 0.00 0.00 0.00 93 1016.9
20260905190125 21 37 4.8 6.4 0.00 0.00 0.00 92 1016.7
20260905185626 21 5 3.2 3.2 0.00 0.00 0.00 91 1016.5
20260905185125 21 1 1.6 3.2 0.00 0.00 0.00 90 1016.4
20260905184626 22 24 3.2 4.8 0.00 0.00 0.00 90 1016.3
20260905184125 22 2 3.2 4.8 0.00 0.00 0.00 89 1016.1
20260905183626 22 10 3.2 3.2 0.00 0.00 0.00 88 1016.0
20260905183126 22 28 4.8 6.4 0.00 0.00 0.00 87 1015.8
20260905182625 22 25 4.8 6.4 0.00 0.00 0.00 87 1015.7
20260905182126 22 33 0.0 1.6 0.00 0.00 0.00 87 1015.8
20260905181625 22 360 3.2 4.8 0.00 0.00 0.00 86 1015.6
20260905181125 22 22 3.2 3.2 0.00 0.00 0.00 86 1015.6
20260905180628 22 16 0.0 1.6 0.00 0.00 0.00 86 1015.6
20260905180125 22 26 3.2 3.2 0.00 0.00 0.00 86 1015.5
20260905175627 23 3 1.6 3.2 0.00 0.00 0.00 85 1015.6
20260905175125 23 352 0.0 0.0 0.00 0.00 0.00 85 1015.6
20260905174625 23 59 3.2 3.2 0.00 0.00 0.00 84 1015.5
20260905174125 23 7 3.2 3.2 0.00 0.00 0.00 84 1015.4
20260905173625 23 42 0.0 3.2 0.00 0.00 0.00 84 1015.5
20260905173125 23 28 0.0 1.6 0.00 0.00 0.00 83 1015.4
20260905172625 23 33 1.6 1.6 0.00 0.00 0.00 83 1015.3
20260905172125 23 140 3.2 4.8 0.00 0.00 0.00 83 1015.3
20260905171625 23 14 4.8 6.4 0.00 0.00 0.00 82 1015.2
20260905171125 23 323 3.2 3.2 0.00 0.00 0.00 82 1015.1
20260905170625 23 214 3.2 3.2 0.00 0.00 0.00 83 1015.2
20260905170126 23 31 0.0 3.2 0.00 0.00 0.00 83 1015.2
20260905165626 23 22 3.2 3.2 0.00 0.00 0.00 83 1015.2
20260905165126 23 356 1.6 3.2 0.00 0.00 0.00 84 1015.2
20260905164625 23 41 1.6 3.2 0.00 0.00 0.00 83 1015.1
20260905164125 23 332 1.6 3.2 0.00 0.00 0.00 84 1015.2
20260905163626 23 326 1.6 3.2 0.00 0.00 0.00 85 1015.3
20260905163126 23 177 3.2 3.2 0.00 0.00 0.00 85 1015.2
20260905162626 23 34 1.6 3.2 0.00 0.00 0.00 86 1015.2
20260905162125 22 182 3.2 3.2 0.00 0.00 0.00 87 1015.4
20260905161625 22 151 0.0 0.0 0.00 0.00 0.00 88 1015.5
20260905161125 22 278 3.2 3.2 0.00 0.00 0.00 87 1015.4
20260905160626 22 7 3.2 4.8 0.00 0.00 0.00 87 1015.3
20260905160125 22 359 3.2 3.2 0.00 0.00 0.00 88 1015.4
20260905155625 22 347 1.6 3.2 0.00 0.00 0.00 88 1015.5
20260905155126 22 1 3.2 4.8 0.00 0.00 0.00 88 1015.4
20260905154625 22 13 3.2 6.4 0.00 0.00 0.00 88 1015.3
20260905154125 22 28 3.2 4.8 0.00 0.00 0.00 88 1015.2
20260905153626 22 6 1.6 3.2 0.00 0.00 0.00 90 1015.3
20260905153126 22 224 1.6 3.2 0.00 0.00 0.00 90 1015.4
20260905152625 22 11 0.0 0.0 0.00 0.00 0.00 90 1015.3
20260905152125 22 40 3.2 4.8 0.00 0.00 0.00 90 1015.0
20260905151625 22 29 1.6 1.6 0.00 0.00 0.00 91 1015.2
20260905151127 22 5 1.6 3.2 0.00 0.00 0.00 92 1015.4
20260905150625 22 34 3.2 4.8 0.00 0.00 0.00 91 1015.1
20260905150126 21 323 0.0 1.6 0.00 0.00 0.00 93 1015.4
20260905145627 21 21 3.2 4.8 0.00 0.00 0.00 93 1015.3
20260905145128 21 82 1.6 3.2 0.00 0.00 0.00 93 1015.4
20260905144626 21 76 0.0 1.6 0.00 0.00 0.00 94 1015.5
20260905144125 21 12 4.8 4.8 0.00 0.00 0.00 94 1015.4
20260905143626 21 256 1.6 1.6 0.00 0.00 0.00 94 1015.4
20260905143126 21 36 3.2 3.2 0.00 0.00 0.00 95 1015.5
20260905142625 21 4 1.6 3.2 0.00 0.00 0.00 95 1015.4
20260905142125 21 353 3.2 3.2 0.00 0.00 0.00 95 1015.5
20260905141626 21 163 0.0 1.6 0.00 0.00 0.00 96 1015.8
20260905141126 21 27 1.6 3.2 0.00 0.00 0.00 96 1015.6
20260905140627 21 39 1.6 3.2 0.00 0.00 0.00 96 1015.6
20260905140125 21 47 3.2 4.8 0.00 0.00 0.00 96 1015.6
20260905135626 21 19 1.6 3.2 0.00 0.00 0.00 96 1015.8
20260905135125 21 7 3.2 4.8 0.00 0.00 0.00 97 1015.9
20260905134625 21 355 4.8 4.8 0.00 0.00 0.00 97 1015.8
20260905134125 21 360 0.0 0.0 0.00 0.00 0.00 97 1015.8
20260905133626 21 20 3.2 6.4 0.00 0.00 0.00 96 1015.9
20260905133126 21 358 1.6 3.2 0.00 0.00 0.00 97 1016.0
20260905132625 21 335 1.6 3.2 0.00 0.00 0.00 97 1016.0
20260905132126 21 8 1.6 3.2 0.00 0.00 0.00 97 1016.1
20260905131625 21 358 3.2 3.2 0.00 0.00 0.00 97 1016.1
20260905131125 21 360 0.0 0.0 0.00 0.00 0.00 98 1016.2
20260905130625 21 329 0.0 1.6 0.00 0.00 0.00 97 1016.2
20260905130125 21 85 3.2 3.2 0.00 0.00 0.00 98 1016.2
20260905125625 21 322 1.6 3.2 0.00 0.00 0.00 98 1016.2
20260905125125 21 12 1.6 3.2 0.00 0.00 0.00 98 1016.2
20260905124625 21 9 3.2 3.2 0.00 0.00 0.00 98 1016.2
20260905124125 21 340 1.6 3.2 0.00 0.00 0.00 98 1016.2
20260905123626 21 18 1.6 3.2 0.00 0.00 0.00 98 1016.1
20260905123125 21 287 3.2 3.2 0.00 0.00 0.00 98 1016.0
20260905122626 21 19 1.6 3.2 0.00 0.00 0.00 98 1015.9
20260905122125 21 301 1.6 1.6 0.00 0.00 0.00 98 1016.0
20260905121625 21 258 3.2 4.8 0.00 0.00 0.00 98 1016.0